KO6TH-15 Weather Reports


time (UTC)temp
C
wind
direction
speed
KPH
gust
KPH
rain 1hr
cm
rain 24hr
cm
rain mn
cm
humidity
%
barometer
mb
20260906095116 11 0 0.0 0.0 0.00 0.00 0.00 95
20260906094046 11 0 0.0 0.0 0.00 0.00 0.00 95
20260906093046 11 0 0.0 0.0 0.00 0.00 0.00 95
20260906092015 11 0 0.0 0.0 0.00 0.00 0.00 96
20260906090946 11 0 0.0 0.0 0.00 0.00 0.00 96
20260906085916 11 0 0.0 0.0 0.00 0.00 0.00 96
20260906084916 11 0 0.0 0.0 0.00 0.00 0.00 96
20260906083846 11 0 0.0 0.0 0.00 0.00 0.00 95
20260906082816 11 0 0.0 0.0 0.00 0.00 0.00 95
20260906081816 11 0 0.0 0.0 0.00 0.00 0.00 94
20260906080746 11 0 0.0 0.0 0.00 0.00 0.00 95
20260906075716 11 0 0.0 0.0 0.00 0.00 0.00 93
20260906074645 11 0 0.0 0.0 0.00 0.00 0.00 93
20260906073646 11 0 0.0 0.0 0.00 0.00 0.00 92
20260906072616 11 0 0.0 0.0 0.00 0.00 0.00 92
20260906071616 11 0 0.0 0.0 0.00 0.00 0.00 92
20260906070545 12 0 0.0 0.0 0.00 0.00 0.00 91
20260906065545 12 0 0.0 0.0 0.00 0.00 0.00 89
20260906064546 12 0 0.0 0.0 0.00 0.00 0.00 89
20260906063546 12 0 0.0 0.0 0.00 0.00 0.00 88
20260906062516 12 0 0.0 0.0 0.00 0.00 0.00 86
20260906061445 12 0 0.0 0.0 0.00 0.00 0.00 86
20260906060416 13 0 0.0 0.0 0.00 0.00 0.00 86
20260906055416 13 0 0.0 0.0 0.00 0.00 0.00 85
20260906054416 13 0 0.0 0.0 0.00 0.00 0.00 85
20260906053416 13 0 0.0 0.0 0.00 0.00 0.00 84
20260906052346 13 0 0.0 0.0 0.00 0.00 0.00 83
20260906051316 13 0 1.6 0.0 0.00 0.00 0.00 83
20260906050246 14 0 0.0 0.0 0.00 0.00 0.00 80
20260906045216 15 0 0.0 0.0 0.00 0.00 0.00 78
20260906044216 15 0 0.0 0.0 0.00 0.00 0.00 75
20260906043146 15 0 0.0 0.0 0.00 0.00 0.00 74
20260906042146 16 0 0.0 0.0 0.00 0.00 0.00 73
20260906041116 16 0 0.0 0.0 0.00 0.00 0.00 71
20260906040116 16 0 0.0 0.0 0.00 0.00 0.00 70
20260906035046 17 0 0.0 0.0 0.00 0.00 0.00 69
20260906034045 17 0 0.0 0.0 0.00 0.00 0.00 66
20260906033016 18 0 0.0 0.0 0.00 0.00 0.00 65
20260906031946 18 0 0.0 0.0 0.00 0.00 0.00 63
20260906030916 19 0 0.0 0.0 0.00 0.00 0.00 61
20260906025916 20 0 0.0 0.0 0.00 0.00 0.00 59
20260906024845 20 0 0.0 0.0 0.00 0.00 0.00 57
20260906023846 21 0 0.0 0.0 0.00 0.00 0.00 55
20260906022845 22 0 0.0 0.0 0.00 0.00 0.00 53
20260906021816 23 0 0.0 0.0 0.00 0.00 0.00 50
20260906020746 23 0 1.6 0.0 0.00 0.00 0.00 46
20260906015745 23 0 3.2 0.0 0.00 0.00 0.00 44
20260906014746 24 0 0.0 0.0 0.00 0.00 0.00 44
20260906013715 25 0 1.6 0.0 0.00 0.00 0.00 43
20260906012715 25 0 3.2 0.0 0.00 0.00 0.00 43
20260906011646 25 0 1.6 0.0 0.00 0.00 0.00 43
20260906010616 25 0 1.6 0.0 0.00 0.00 0.00 41
20260906005616 25 0 3.2 0.0 0.00 0.00 0.00 41
20260906004615 26 0 6.4 0.0 0.00 0.00 0.00 40
20260906003546 27 0 1.6 0.0 0.00 0.00 0.00 38
20260906002545 27 0 1.6 0.0 0.00 0.00 0.00 39
20260906001546 27 0 3.2 0.0 0.00 0.00 0.00 39
20260906000516 27 0 3.2 0.0 0.00 0.00 0.00 39
20260905235516 26 0 4.8 0.0 0.00 0.00 0.00 39
20260905234515 27 0 3.2 0.0 0.00 0.00 0.00 38
20260905233515 28 0 8.0 0.0 0.00 0.00 0.00 37
20260905232515 29 0 6.4 0.0 0.00 0.00 0.00 35
20260905231516 30 0 8.0 0.0 0.00 0.00 0.00 34
20260905230446 29 0 4.8 0.0 0.00 0.00 0.00 35
20260905225446 28 0 3.2 0.0 0.00 0.00 0.00 36
20260905224445 28 0 6.4 0.0 0.00 0.00 0.00 35
20260905223415 30 0 6.4 0.0 0.00 0.00 0.00 33
20260905222346 30 0 4.8 0.0 0.00 0.00 0.00 33
20260905221316 31 0 6.4 0.0 0.00 0.00 0.00 33
20260905220316 29 0 1.6 0.0 0.00 0.61 0.00 35
20260905215246 29 0 3.2 0.0 0.00 0.61 0.00 35
20260905214216 29 0 4.8 0.0 0.00 0.61 0.00 34
20260905213146 28 0 6.4 0.0 0.00 0.61 0.00 34
20260905212116 29 0 3.2 0.0 0.00 0.61 0.00 33
20260905211115 27 0 3.2 0.0 0.00 0.61 0.00 34
20260905210046 26 0 4.8 0.0 0.00 0.61 0.00 37
20260905205046 25 0 4.8 0.0 0.00 0.61 0.00 36
20260905204046 25 0 8.0 0.0 0.00 0.61 0.00 39
20260905203016 23 0 6.4 0.0 0.00 0.61 0.00 41
20260905202016 24 0 9.7 0.0 0.00 0.61 0.00 42
20260905201016 25 0 4.8 0.0 0.00 0.61 0.00 42
20260905200016 26 0 1.6 0.0 0.00 0.61 0.00 42
20260905194946 25 0 8.0 0.0 0.00 0.61 0.00 45
20260905193946 25 0 3.2 0.0 0.00 0.61 0.00 46
20260905192916 24 0 6.4 0.0 0.00 0.61 0.00 48
20260905191846 24 0 8.0 0.0 0.00 0.61 0.00 48
20260905190846 24 0 3.2 0.0 0.00 0.61 0.00 49
20260905185816 24 0 1.6 0.0 0.00 0.61 0.00 49
20260905184816 23 0 1.6 0.0 0.00 0.61 0.00 51
20260905183746 23 0 4.8 0.0 0.00 0.61 0.00 52
20260905182746 23 0 12.9 0.0 0.00 0.61 0.00 53
20260905181716 23 0 11.3 0.0 0.00 0.61 0.00 52
20260905180716 23 0 9.7 0.0 0.00 0.61 0.00 52
20260905175716 23 0 6.4 0.0 0.00 0.61 0.00 53
20260905174716 22 0 3.2 0.0 0.00 0.61 0.00 55
20260905173646 22 0 3.2 0.0 0.00 0.61 0.00 57
20260905172616 21 0 3.2 0.0 0.00 0.61 0.00 58
20260905171616 21 0 3.2 0.0 0.00 0.61 0.00 61
20260905170616 20 0 1.6 0.0 0.00 0.61 0.00 58
20260905165616 19 0 0.0 0.0 0.00 0.61 0.00 61
20260905164616 18 0 0.0 0.0 0.00 0.61 0.00 67
20260905163615 18 0 0.0 0.0 0.00 0.61 0.00 70
20260905162615 17 0 0.0 0.0 0.00 0.61 0.00 74
20260905161546 16 0 0.0 0.0 0.00 0.61 0.00 77
20260905160546 16 0 0.0 0.0 0.00 0.61 0.00 81
20260905155516 15 0 0.0 0.0 0.00 0.61 0.00 87
20260905154446 13 0 0.0 0.0 0.00 0.61 0.00 97
20260905153446 12 0 0.0 0.0 0.00 0.61 0.00 99
20260905152446 12 0 0.0 0.0 0.00 0.61 0.00 99
20260905151416 11 0 0.0 0.0 0.00 0.61 0.00 99
20260905150346 11 0 0.0 0.0 0.00 0.61 0.00 99
20260905145346 10 0 0.0 0.0 0.00 0.61 0.00 99
20260905144316 8 0 0.0 0.0 0.00 0.61 0.00 99
20260905143316 7 0 0.0 0.0 0.00 0.61 0.00 99
20260905142316 7 0 0.0 0.0 0.00 0.61 0.00 99
20260905141246 7 0 0.0 0.0 0.00 0.61 0.00 99
20260905140215 7 0 0.0 0.0 0.00 0.61 0.00 99
20260905135146 7 0 0.0 0.0 0.00 0.61 0.00 99
20260905134146 7 0 0.0 0.0 0.00 0.61 0.00 99
20260905133116 7 0 0.0 0.0 0.00 0.61 0.00 99
20260905132115 7 0 0.0 0.0 0.00 0.61 0.00 99
20260905131116 7 0 0.0 0.0 0.00 0.61 0.00 99
20260905130116 7 0 0.0 0.0 0.00 0.61 0.00 99
20260905125046 7 0 0.0 0.0 0.00 0.61 0.00 99
20260905124016 7 0 0.0 0.0 0.00 0.61 0.00 99
20260905123016 7 0 0.0 0.0 0.00 0.61 0.00 99
20260905122016 7 0 0.0 0.0 0.00 0.61 0.00 99
20260905121016 7 0 0.0 0.0 0.00 0.61 0.00 99
20260905120016 7 0 0.0 0.0 0.00 0.61 0.00 99
20260905114945 7 0 0.0 0.0 0.00 0.61 0.00 99
20260905113916 7 0 0.0 0.0 0.00 0.61 0.00 99
20260905112846 7 0 0.0 0.0 0.00 0.61 0.00 99
20260905111923 7 0 0.0 0.0 0.00 0.61 0.00 99
20260905111846 7 0 0.0 0.0 0.00 0.61 0.00 99
20260905110816 7 0 0.0 0.0 0.00 0.61 0.00 99
20260905105815 7 0 0.0 0.0 0.00 0.61 0.00 99
20260905104815 8 0 0.0 0.0 0.00 0.61 0.00 99
20260905103745 8 0 0.0 0.0 0.00 0.61 0.00 99
20260905102716 8 0 0.0 0.0 0.00 0.61 0.00 99
20260905101716 8 0 0.0 0.0 0.00 0.61 0.00 99
20260905100716 8 0 0.0 0.0 0.00 0.61 0.00 99